CW3518 Weather Reports


time (UTC)temp
F
wind
direction
speed
knots
gust
knots
rain 1hr
in
rain 24hr
in
rain mn
in
humidity
%
barometer
mb
20260507175027 66 59 2.6 12.2 0.00 0.00 0.00 51 1018.6
20260507174527 67 22 4.3 9.6 0.00 0.00 0.00 47 1018.7
20260507174027 67 356 4.3 12.2 0.00 0.00 0.00 48 1018.9
20260507173527 67 357 7.8 12.2 0.00 0.00 0.00 47 1018.9
20260507173027 66 338 4.3 11.3 0.00 0.00 0.00 49 1019.1
20260507172527 66 81 6.1 13.9 0.00 0.00 0.00 47 1019.2
20260507172027 67 62 11.3 17.4 0.00 0.00 0.00 47 1019.3
20260507171527 67 55 14.8 17.4 0.00 0.00 0.00 46 1019.2
20260507170528 65 52 6.1 15.6 0.00 0.00 0.00 50 1019.4
20260507170027 65 61 12.2 15.6 0.00 0.00 0.00 50 1019.4
20260507165528 65 60 4.3 13.9 0.00 0.00 0.00 49 1019.5
20260507164527 65 55 10.4 13.9 0.00 0.00 0.00 49 1019.6
20260507164027 65 1 7.8 13.9 0.00 0.00 0.00 48 1019.6
20260507163527 64 26 10.4 13.9 0.00 0.00 0.00 51 1019.7
20260507163028 64 33 10.4 13.9 0.00 0.00 0.00 50 1019.7
20260507161527 64 42 4.3 13.9 0.00 0.00 0.00 54 1019.8
20260507160027 63 3 7.8 12.2 0.00 0.00 0.00 55 1019.9
20260507155527 63 82 6.1 9.6 0.00 0.00 0.00 55 1019.9
20260507155027 63 45 7.0 9.6 0.00 0.00 0.00 57 1019.9
20260507154527 62 41 9.6 10.4 0.00 0.00 0.00 59 1020.0
20260507154028 61 86 6.1 12.2 0.00 0.00 0.00 58 1020.1
20260507153528 62 53 10.4 12.2 0.00 0.00 0.00 57 1020.1
20260507153028 62 44 9.6 9.6 0.00 0.00 0.00 56 1020.1
20260507152527 61 44 5.2 11.3 0.00 0.00 0.00 59 1020.3
20260507151027 61 60 9.6 13.0 0.00 0.00 0.00 61 1020.1
20260507150528 61 37 11.3 11.3 0.00 0.00 0.00 60 1020.1
20260507150027 60 55 9.6 11.3 0.00 0.00 0.00 67 1020.3
20260507145528 60 62 10.4 10.4 0.00 0.00 0.00 68 1020.4
20260507145029 59 71 5.2 7.8 0.00 0.00 0.00 69 1020.6
20260507144527 58 20 7.0 7.8 0.00 0.00 0.00 71 1020.5
20260507144027 58 42 5.2 7.8 0.00 0.00 0.00 72 1020.6
20260507143528 58 26 3.5 7.8 0.00 0.00 0.00 72 1020.7
20260507143028 58 30 7.0 7.8 0.00 0.00 0.00 72 1020.6
20260507142527 57 21 7.0 7.8 0.00 0.00 0.00 73 1020.7
20260507141527 57 15 2.6 7.0 0.00 0.00 0.00 74 1020.9
20260507141027 56 44 4.3 7.8 0.00 0.00 0.00 75 1020.9
20260507140529 56 19 6.1 7.8 0.00 0.00 0.00 75 1020.9
20260507140027 56 356 7.0 7.8 0.00 0.00 0.00 74 1020.8
20260507135527 56 19 6.1 7.8 0.00 0.00 0.00 77 1020.9
20260507135027 55 11 6.1 7.0 0.00 0.00 0.00 77 1020.9
20260507134529 55 2 6.1 7.8 0.00 0.00 0.00 77 1020.9
20260507134027 55 15 5.2 7.8 0.00 0.00 0.00 79 1020.9
20260507133527 55 16 6.1 7.8 0.00 0.00 0.00 77 1020.8
20260507133027 55 4 7.0 7.8 0.00 0.00 0.00 78 1020.8
20260507132027 54 9 7.8 7.8 0.00 0.00 0.00 81 1020.8
20260507131527 54 354 7.0 7.0 0.00 0.00 0.00 80 1020.7
20260507131027 53 359 6.1 7.0 0.00 0.00 0.00 82 1020.7
20260507130527 53 0 3.5 7.0 0.00 0.00 0.00 82 1020.8
20260507130027 53 352 6.1 7.0 0.00 0.00 0.00 83 1020.8
20260507125527 52 345 4.3 6.1 0.00 0.00 0.00 84 1020.7
20260507125028 52 335 3.5 7.0 0.00 0.00 0.00 85 1020.6
20260507124027 51 342 6.1 7.0 0.00 0.00 0.00 86 1020.5
20260507123527 50 344 4.3 7.0 0.00 0.00 0.00 88 1020.4
20260507123028 50 340 6.1 7.0 0.00 0.00 0.00 88 1020.3
20260507122528 50 336 4.3 7.0 0.00 0.00 0.00 88 1020.3
20260507122028 50 342 6.1 7.0 0.00 0.00 0.00 88 1020.1
20260507121527 50 335 5.2 6.1 0.00 0.00 0.00 89 1020.1
20260507121027 49 323 6.1 6.1 0.00 0.00 0.00 90 1020.0
20260507120527 49 321 5.2 5.2 0.00 0.00 0.00 91 1019.9
20260507120028 49 310 4.3 5.2 0.00 0.00 0.00 91 1020.0
20260507115527 49 304 4.3 5.2 0.00 0.00 0.00 91 1020.0
20260507115027 49 290 4.3 5.2 0.00 0.00 0.00 91 1020.0
20260507114527 49 280 4.3 5.2 0.00 0.00 0.00 91 1020.0
20260507114027 49 277 5.2 5.2 0.00 0.00 0.00 91 1020.0
20260507113527 48 285 4.3 6.1 0.00 0.00 0.00 91 1020.0
20260507113027 48 296 5.2 7.0 0.00 0.00 0.00 91 1020.0
20260507112527 48 297 5.2 7.0 0.00 0.00 0.00 91 1019.9
20260507112028 49 298 6.1 7.0 0.00 0.00 0.00 90 1019.9
20260507111528 49 295 5.2 6.1 0.00 0.00 0.00 90 1019.9
20260507111027 49 295 4.3 7.0 0.00 0.00 0.00 91 1019.9
20260507110528 49 287 5.2 7.0 0.00 0.00 0.00 91 1019.6
20260507110027 49 287 6.1 6.1 0.00 0.00 0.00 91 1019.6
20260507105528 49 272 4.3 4.3 0.00 0.00 0.00 90 1019.6
20260507105028 50 274 2.6 4.3 0.00 0.00 0.00 90 1019.4
20260507104528 50 278 2.6 5.2 0.00 0.00 0.00 90 1019.3
20260507103528 50 299 4.3 7.0 0.00 0.00 0.00 90 1019.3
20260507103028 50 320 6.1 7.8 0.00 0.00 0.00 89 1019.5
20260507102527 50 312 4.3 7.8 0.00 0.00 0.00 90 1019.6
20260507102027 50 317 6.1 7.8 0.00 0.00 0.00 90 1019.5
20260507101527 50 326 5.2 7.8 0.00 0.00 0.00 90 1019.3
20260507101028 50 330 7.0 7.8 0.00 0.00 0.00 90 1019.2
20260507100528 51 322 6.1 7.8 0.00 0.00 0.00 90 1019.0
20260507100028 51 327 5.2 6.1 0.00 0.00 0.00 91 1018.7
20260507094528 51 352 4.3 7.0 0.00 0.00 0.00 91 1018.6
20260507094028 51 358 4.3 7.0 0.00 0.00 0.00 91 1018.5
20260507093028 51 349 5.2 6.1 0.00 0.00 0.00 91 1018.5
20260507092527 51 344 5.2 6.1 0.00 0.00 0.00 91 1018.4
20260507092028 51 358 3.5 6.1 0.00 0.00 0.00 91 1018.5
20260507091528 51 356 4.3 7.0 0.00 0.00 0.00 91 1018.5
20260507091028 51 353 6.1 7.0 0.00 0.00 0.00 91 1018.3
20260507090528 51 353 5.2 7.0 0.00 0.00 0.00 92 1018.3
20260507085528 51 0 5.2 7.8 0.00 0.00 0.00 92 1018.4
20260507085028 51 1 6.1 7.8 0.00 0.00 0.00 92 1018.3
20260507084527 51 356 6.1 7.0 0.00 0.00 0.00 92 1018.4
20260507084027 51 356 4.3 5.2 0.00 0.00 0.00 92 1018.5
20260507083527 51 338 3.5 5.2 0.00 0.00 0.00 91 1018.7
20260507083028 51 356 3.5 5.2 0.00 0.00 0.00 91 1018.6
20260507082528 51 358 5.2 5.2 0.00 0.00 0.00 91 1018.5
20260507082028 51 358 4.3 6.1 0.00 0.00 0.00 92 1018.5
20260507081528 51 340 4.3 6.1 0.00 0.00 0.00 92 1018.3
20260507081028 51 349 4.3 7.0 0.00 0.00 0.00 92 1018.3
20260507080528 51 6 5.2 7.0 0.00 0.00 0.00 92 1018.1
20260507080028 51 359 3.5 7.0 0.00 0.00 0.00 92 1018.1
20260507075528 51 2 7.0 7.0 0.00 0.00 0.00 92 1018.1
20260507075028 51 10 6.1 7.8 0.00 0.00 0.00 92 1018.1
20260507074527 51 7 6.1 7.8 0.00 0.00 0.00 92 1018.1
20260507074028 51 3 6.1 7.8 0.00 0.00 0.00 92 1018.1
20260507073528 51 7 6.1 7.8 0.00 0.00 0.00 91 1018.2
20260507073028 51 358 5.2 7.0 0.00 0.00 0.00 91 1018.3
20260507072528 51 3 6.1 7.0 0.00 0.00 0.00 91 1018.3
20260507072028 51 357 6.1 7.0 0.00 0.00 0.00 91 1018.4
20260507071528 51 10 6.1 7.0 0.00 0.00 0.00 92 1018.3
20260507071027 51 6 6.1 7.0 0.00 0.00 0.00 92 1018.3
20260507070528 51 8 5.2 7.0 0.00 0.00 0.00 92 1018.3
20260507065528 51 10 5.2 7.0 0.00 0.00 0.00 92 1018.3
20260507065028 51 5 6.1 7.0 0.00 0.00 0.00 92 1018.5
20260507064528 51 6 6.1 7.0 0.00 0.00 0.00 92 1018.4
20260507064028 51 3 6.1 6.1 0.00 0.00 0.00 91 1018.3
20260507063529 51 13 5.2 6.1 0.00 0.00 0.00 91 1018.3
20260507063028 51 6 4.3 6.1 0.00 0.00 0.00 91 1018.3
20260507062528 52 8 6.1 7.0 0.00 0.00 0.00 91 1018.3
20260507062028 52 12 6.1 7.0 0.00 0.00 0.00 91 1018.2
20260507061528 52 358 6.1 7.0 0.00 0.00 0.00 91 1018.2
20260507061028 52 3 6.1 6.1 0.00 0.00 0.00 91 1018.1
20260507060528 52 4 5.2 6.1 0.00 0.00 0.00 90 1018.1
20260507055528 53 5 4.3 5.2 0.00 0.00 0.00 89 1017.8
20260507055028 53 14 4.3 5.2 0.00 0.00 0.00 88 1017.7
20260507054528 53 21 4.3 5.2 0.00 0.00 0.00 88 1017.6
20260507054028 53 23 4.3 6.1 0.00 0.00 0.00 88 1017.7
20260507053528 53 26 5.2 6.1 0.00 0.00 0.00 87 1017.6
20260507053028 53 32 5.2 6.1 0.00 0.00 0.00 87 1017.5
20260507052028 53 30 5.2 7.0 0.00 0.00 0.00 87 1017.4
20260507051028 54 55 6.1 7.0 0.00 0.00 0.00 86 1017.5
20260507045528 54 56 6.1 7.0 0.00 0.00 0.00 85 1017.5
20260507045029 54 52 5.2 7.8 0.00 0.00 0.00 84 1017.5
20260507044528 54 58 6.1 7.8 0.00 0.00 0.00 84 1017.6
20260507044028 55 49 6.1 7.8 0.00 0.00 0.00 84 1017.6
20260507043528 55 50 6.1 7.0 0.00 0.00 0.00 83 1017.7
20260507043028 55 62 6.1 7.0 0.00 0.00 0.00 83 1017.8
20260507042028 55 46 6.1 7.8 0.00 0.00 0.00 82 1017.8
20260507041528 55 55 5.2 7.8 0.00 0.00 0.00 81 1017.8
20260507041028 55 54 6.1 7.8 0.00 0.00 0.00 81 1017.8
20260507040528 55 56 7.8 7.8 0.00 0.00 0.00 81 1017.7
20260507040028 56 60 5.2 7.0 0.00 0.00 0.00 80 1017.7
20260507035028 56 64 6.1 7.0 0.00 0.00 0.00 79 1017.6
20260507034028 57 59 6.1 7.8 0.00 0.00 0.00 77 1017.6
20260507033528 57 53 7.0 7.8 0.00 0.00 0.00 77 1017.6
20260507033028 57 63 7.0 8.7 0.00 0.00 0.00 76 1017.6
20260507032528 57 45 6.1 9.6 0.00 0.00 0.00 76 1017.6
20260507031028 58 46 6.1 12.2 0.00 0.00 0.00 75 1017.5
20260507030028 58 33 7.8 8.7 0.00 0.00 0.00 75 1017.4
20260507025528 58 43 7.8 9.6 0.00 0.00 0.00 75 1017.4
20260507025028 58 35 7.8 11.3 0.00 0.00 0.00 75 1017.4
20260507024528 58 39 7.8 11.3 0.00 0.00 0.00 74 1017.4
20260507023528 58 30 9.6 14.8 0.00 0.00 0.00 74 1017.2
20260507022029 59 36 7.8 13.9 0.00 0.00 0.00 73 1017.1
20260507021528 59 35 7.8 13.0 0.00 0.00 0.00 73 1017.1
20260507021028 59 30 12.2 13.0 0.00 0.00 0.00 73 1017.0
20260507020528 59 37 8.7 13.9 0.00 0.00 0.00 73 1016.9
20260507015528 59 33 7.8 15.6 0.00 0.00 0.00 72 1016.7
20260507015028 59 34 15.6 15.6 0.00 0.00 0.00 71 1016.5
20260507014528 59 25 14.8 14.8 0.00 0.00 0.00 72 1016.3
20260507014028 59 25 13.0 15.6 0.00 0.00 0.00 71 1016.3
20260507013529 59 23 8.7 15.6 0.00 0.00 0.00 71 1016.2
20260507013028 59 19 8.7 16.5 0.00 0.00 0.00 71 1016.0
20260507012528 59 24 13.0 16.5 0.00 0.00 0.00 71 1015.8
20260507012028 59 20 15.6 15.6 0.00 0.00 0.00 72 1015.7
20260507011528 60 16 11.3 15.6 0.00 0.00 0.00 71 1015.6
20260507010528 60 1 11.3 14.8 0.00 0.00 0.00 71 1015.5
20260507010028 60 18 11.3 13.9 0.00 0.00 0.00 71 1015.4
20260507005528 60 19 9.6 16.5 0.00 0.00 0.00 71 1015.4
20260507005028 60 23 13.0 16.5 0.00 0.00 0.00 70 1015.3
20260507004528 61 13 11.3 15.6 0.00 0.00 0.00 70 1015.3
20260507003029 62 12 10.4 13.0 0.00 0.00 0.00 70 1015.2
20260507002528 62 22 7.8 11.3 0.00 0.00 0.00 70 1015.1
20260507001528 62 32 7.0 13.9 0.00 0.00 0.00 69 1014.9
20260507000528 62 9 9.6 13.0 0.00 0.00 0.00 68 1014.7
20260507000028 62 22 10.4 13.9 0.00 0.00 0.00 68 1014.8
20260506235528 62 16 12.2 14.8 0.00 0.00 0.00 68 1014.8
20260506235028 62 10 10.4 14.8 0.00 0.00 0.00 68 1014.7
20260506234028 62 7 8.7 15.6 0.00 0.00 0.00 68 1014.6
20260506233528 62 7 12.2 15.6 0.00 0.00 0.00 67 1014.5
20260506233028 63 9 10.4 13.9 0.00 0.00 0.00 67 1014.5
20260506232528 63 10 13.0 16.5 0.00 0.00 0.00 66 1014.5
20260506232028 63 37 10.4 16.5 0.00 0.00 0.00 67 1014.5
20260506231528 63 25 7.8 15.6 0.00 0.00 0.00 67 1014.4
20260506231028 64 12 11.3 15.6 0.00 0.00 0.00 66 1014.2
20260506230028 64 3 13.0 13.9 0.00 0.00 0.00 64 1014.2
20260506225528 64 14 7.8 14.8 0.00 0.00 0.00 65 1014.2
20260506225029 64 4 8.7 14.8 0.00 0.00 0.00 64 1014.2
20260506224528 64 4 9.6 16.5 0.00 0.00 0.00 64 1014.1
20260506223528 65 31 13.9 15.6 0.00 0.00 0.00 62 1013.9
20260506223028 65 39 13.0 13.9 0.00 0.00 0.00 62 1013.9
20260506222530 66 11 7.8 14.8 0.00 0.00 0.00 62 1014.0
20260506222028 65 17 11.3 14.8 0.00 0.00 0.00 62 1013.9
20260506221528 66 5 9.6 13.9 0.00 0.00 0.00 62 1013.9
20260506221028 65 348 9.6 14.8 0.00 0.00 0.00 62 1014.0
20260506220528 65 2 9.6 14.8 0.00 0.00 0.00 62 1013.9
20260506220028 65 358 9.6 13.9 0.00 0.00 0.00 62 1013.7
20260506215528 66 341 9.6 14.8 0.00 0.00 0.00 61 1013.7
20260506214528 66 2 13.9 15.6 0.00 0.00 0.00 61 1013.7
20260506214028 65 34 13.0 15.6 0.00 0.00 0.00 62 1013.7
20260506213528 65 23 11.3 13.0 0.00 0.00 0.00 62 1014.1
20260506213029 65 32 9.6 11.3 0.00 0.00 0.00 63 1014.2
20260506212028 65 357 7.8 13.0 0.00 0.00 0.00 63 1014.1
20260506211530 65 33 11.3 13.0 0.00 0.00 0.00 63 1014.0
20260506210528 64 25 8.7 13.0 0.00 0.00 0.00 63 1014.0
20260506210028 65 34 10.4 11.3 0.00 0.00 0.00 63 1014.0
20260506205528 65 347 7.8 11.3 0.00 0.00 0.00 62 1014.0
20260506205028 65 9 11.3 13.9 0.00 0.00 0.00 62 1014.1
20260506204528 64 3 6.1 13.9 0.00 0.00 0.00 63 1014.3
20260506204028 65 13 9.6 13.9 0.00 0.00 0.00 61 1014.3
20260506203528 64 68 4.3 13.0 0.00 0.00 0.00 62 1014.4
20260506202528 63 94 2.6 12.2 0.00 0.00 0.00 63 1014.6
20260506202028 63 56 8.7 13.0 0.00 0.00 0.00 64 1014.6
20260506201029 63 59 10.4 13.0 0.00 0.00 0.00 63 1014.7
20260506200528 64 70 7.0 13.0 0.00 0.00 0.00 63 1014.7
20260506200028 63 57 7.0 12.2 0.00 0.00 0.00 64 1014.7
20260506195528 63 31 11.3 12.2 0.00 0.00 0.00 64 1014.7
20260506195028 62 35 9.6 12.2 0.00 0.00 0.00 65 1014.9
20260506194028 63 17 2.6 14.8 0.00 0.00 0.00 63 1015.0
20260506193529 63 35 9.6 14.8 0.00 0.00 0.00 64 1014.9
20260506193028 62 29 7.8 14.8 0.00 0.00 0.00 64 1014.8
20260506192530 62 60 12.2 14.8 0.00 0.00 0.00 65 1014.6
20260506192028 63 26 11.3 18.2 0.00 0.00 0.00 65 1014.4
20260506191529 62 17 8.7 18.2 0.00 0.00 0.00 67 1014.1
20260506191032 62 60 12.2 15.6 0.00 0.00 0.00 66 1014.0
20260506190531 62 25 12.2 15.6 0.00 0.00 0.00 65 1014.1
20260506190028 61 34 10.4 14.8 0.00 0.00 0.00 66 1014.2
20260506185528 61 15 13.9 16.5 0.00 0.00 0.00 68 1014.3
20260506185028 60 30 13.0 16.5 0.00 0.00 0.00 67 1014.5
20260506184529 61 16 10.4 16.5 0.00 0.00 0.00 67 1014.5
20260506184028 61 49 16.5 17.4 0.00 0.00 0.00 68 1014.5
20260506183029 61 19 14.8 17.4 0.00 0.00 0.00 65 1014.4
20260506182528 61 356 8.7 17.4 0.00 0.00 0.00 66 1014.5
20260506182029 60 350 8.7 16.5 0.00 0.00 0.00 66 1014.5
20260506181528 60 18 10.4 18.2 0.00 0.00 0.00 67 1014.3
20260506181028 59 40 11.3 18.2 0.00 0.00 0.00 71 1014.4
20260506180529 60 24 12.2 15.6 0.00 0.00 0.00 69 1014.4